Lid_Strength_Index
8 8 8 8 8 8 8 8 7 6 6 5 4 4 3 3 1 2 4 5 5 7 8 8 8 10 10 10 12 10 10 10 10 13 14 14 15 13 14 13 14 15 16 16 15 18 19 8 9 13 11 9 8 9
8 8 8 8 8 8 8 7 7 6 6 5 4 4 3 2 1 1 6 5 4 6 7 7 6 5 6 6 9 10 10 10 9 11 11 11 14 12 13 16 11 15 13 14 13 14 11 10 10 9 9 9 10 10
8 8 8 8 8 8 8 7 7 6 5 5 4 3 3 2 1 1 4 5 7 6 8 8 8 6 6 6 6 10 9 8 8 7 9 10 13 11 15 14 12 11 9 12 12 11 11 10 9 9 9 10 9 9
8 8 8 9 9 8 8 7 7 6 5 5 4 3 2 1 1 1 4 6 5 7 9 9 6 7 5 5 6 6 8 7 7 8 10 11 12 9 12 11 12 10 9 12 12 11 10 10 10 9 10 10 10 10
8 8 8 8 8 8 8 7 7 6 5 5 3 3 2 1 1 2 3 5 5 7 10 9 7 6 6 6 6 7 9 9 9 10 10 11 9 10 10 11 12 9 10 12 14 10 11 11 9 8 10 10 10 11
8 8 8 8 9 8 8 7 7 6 5 4 3 3 2 1 1 6 8 5 5 6 7 10 7 7 6 6 7 7 8 10 9 10 11 10 8 10 13 14 10 8 8 8 10 9 10 10 10 9 11 11 11 11
8 8 8 8 8 8 8 7 6 6 5 4 3 3 2 1 2 7 8 6 3 6 6 9 10 7 6 7 8 8 8 10 10 11 11 10 10 10 12 14 10 9 9 8 8 8 11 11 12 11 11 12 12 12
8 8 9 8 8 8 8 7 6 6 5 4 3 2 1 1 2 5 4 2 4 6 7 12 11 9 7 9 10 8 10 10 11 11 10 12 10 10 14 10 9 10 10 10 10 10 11 11 12 12 12 12 13 14
8 8 8 8 8 8 8 7 6 5 5 4 3 2 4 5 7 6 1 1 5 6 10 10 12 13 7 9 9 9 10 11 10 11 11 11 12 13 11 11 11 11 11 12 12 12 12 13 13 13 13 13 14 15
8 8 8 8 8 8 8 7 6 5 4 4 7 8 9 7 1 2 5 7 7 8 9 11 9 11 9 10 11 11 11 12 13 12 10 10 11 10 10 10 10 10 10 11 12 13 13 13 13 13 14 13 13 14
8 8 8 7 8 8 7 7 6 6 6 9 9 10 6 3 6 8 9 10 10 11 10 9 9 10 8 10 11 10 13 12 14 12 12 13 13 11 10 11 10 10 11 11 11 12 12 12 12 12 13 13 13 14
7 8 8 7 7 7 7 7 6 7 8 7 6 4 5 7 9 10 11 10 11 11 9 10 9 9 9 9 10 11 11 11 13 11 12 15 11 10 10 11 11 11 11 11 11 12 12 12 12 13 13 14 14 14
8 7 7 7 8 7 7 7 6 5 5 5 5 7 7 10 14 12 15 12 13 10 9 9 10 10 9 9 11 12 12 14 10 12 13 12 11 10 10 11 11 11 11 11 12 12 12 13 13 13 14 14 14 14
7 8 7 7 7 7 7 6 5 6 6 8 11 15 12 12 11 11 11 11 10 10 9 7 10 11 10 10 11 12 11 11 13 14 13 12 11 10 10 10 11 12 11 12 12 12 13 14 14 14 14 13 14 15
8 7 7 7 6 6 6 6 5 8 7 9 11 15 11 9 10 9 9 10 7 9 7 9 10 10 11 11 11 12 13 14 13 13 11 12 10 10 10 11 11 12 12 12 12 13 13 13 14 14 14 14 14 14
6 6 7 6 6 6 6 6 8 8 8 8 10 11 10 10 9 10 10 9 6 8 6 8 9 10 12 12 12 13 13 14 12 9 11 11 10 10 10 10 11 11 12 12 13 12 13 13 14 14 14 14 14 14
7 8 7 6 6 6 5 8 8 8 9 8 11 10 10 10 10 9 9 9 8 9 9 10 12 12 11 11 12 10 13 12 9 10 9 9 9 10 10 10 10 11 12 12 12 13 13 13 14 15 15 14 15 15
8 7 6 6 7 8 8 8 8 8 9 11 12 11 9 8 9 9 8 8 8 7 7 9 9 12 12 13 12 9 8 7 7 8 9 9 8 8 9 10 10 11 11 12 12 12 12 12 13 14 16 15 15 14
8 7 6 6 7 9 9 8 7 9 9 10 9 9 8 8 7 7 7 6 4 4 7 8 10 11 10 8 8 7 7 7 8 8 8 7 8 8 9 10 10 11 12 12 12 13 11 11 12 12 13 14 14 14
6 6 6 6 6 9 9 8 6 9 11 9 8 8 8 8 7 7 6 6 6 8 10 12 10 9 8 7 7 7 6 7 9 10 10 10 9 9 9 10 11 11 12 12 12 11 10 11 11 12 12 13 13 13
7 9 7 7 7 8 8 8 9 8 9 9 6 8 8 6 6 7 8 6 8 9 11 8 8 7 6 6 5 5 6 6 7 7 9 10 10 9 9 10 10 10 12 12 12 11 10 11 11 11 11 12 11 11
9 6 8 7 9 8 10 9 10 8 9 9 8 7 8 9 9 8 7 8 9 8 7 7 7 6 5 5 4 4 4 4 5 6 8 8 9 9 9 9 9 10 11 11 10 10 10 10 10 10 11 12 12 13
6 6 7 8 10 13 12 7 10 7 9 8 8 9 9 8 8 7 9 8 7 6 5 5 5 5 5 5 4 5 5 6 6 6 7 7 7 7 8 8 8 9 10 10 9 9 10 10 10 10 10 11 12 12
5 7 9 9 12 13 8 9 8 9 9 10 10 11 9 8 7 8 10 10 9 6 6 6 7 7 7 6 7 6 7 7 6 6 6 7 8 8 7 7 7 7 8 8 9 9 9 9 10 10 10 10 11 12
10 11 9 10 8 9 10 10 9 11 11 10 10 9 9 7 10 10 10 11 9 8 7 7 8 10 10 11 8 7 7 8 8 7 6 6 7 7 8 7 7 7 7 8 9 9 9 9 9 9 10 10 10 11
13 11 13 11 11 11 11 11 10 10 10 10 9 8 8 9 11 12 10 10 8 8 8 9 11 11 11 9 10 9 8 6 7 7 6 6 6 7 8 8 9 9 7 7 8 9 9 9 9 9 9 10 11 10
14 12 10 7 7 9 9 9 8 9 10 11 9 9 10 12 13 11 10 8 8 8 8 9 9 8 8 7 7 9 9 7 6 6 6 6 6 5 7 7 7 7 7 7 8 8 9 9 9 9 9 9 9 10
10 9 11 8 8 8 9 9 9 10 10 10 10 11 12 12 12 9 8 7 7 9 10 9 9 8 7 7 7 9 9 8 7 6 5 5 6 7 7 6 6 10 6 6 7 8 8 9 9 9 9 9 9 9
10 9 9 9 8 8 8 9 10 10 9 10 11 12 11 9 9 12 11 8 8 8 11 11 11 10 10 10 10 9 8 8 8 7 6 7 7 8 7 7 7 7 6 7 10 8 8 8 8 8 8 9 9 9
11 10 10 9 8 10 8 8 9 8 9 9 9 10 10 10 12 11 11 11 12 13 12 11 11 11 12 12 12 10 8 8 8 9 9 9 9 8 8 8 7 8 7 7 8 9 11 9 9 8 9 9 9 10
10 10 9 8 9 8 7 7 7 8 8 9 9 10 12 13 11 11 12 13 15 13 12 12 12 11 11 10 10 11 11 9 9 8 8 8 8 8 8 8 7 7 7 7 7 8 8 8 8 9 9 9 9 10
9 8 10 10 9 7 6 7 7 8 8 8 9 8 9 10 11 11 14 10 12 11 11 11 13 11 10 9 9 9 10 10 9 9 9 9 9 8 8 8 8 7 6 6 7 7 8 8 8 8 9 9 9 9
8 8 8 8 9 9 8 8 9 10 9 10 10 10 10 10 11 11 11 9 10 10 10 10 10 9 9 9 10 10 10 9 9 10 10 10 10 10 9 8 7 7 7 6 6 7 7 7 8 8 8 8 8 9